Flag for United Kingdom Weather past 2 weeks in Brentwood, England, United Kingdom

Now
64 °F

Mild.


Feels Like: 64 °F
Forecast: 60 / 67 °F
Wind: 14 mph from Southwest

Location: Gravesend-Broadness

Current Time: Aug 29, 2014 at 9:57:28 PM

Latest Report: Aug 29, 2014 at 8:00 PM


Visibility: N/A

Pressure: 29.91 "Hg

Humidity: 78%

Dew point: 57 °F

Location of BrentwoodLocation

Historic Weather in Brentwood — Graph

°F

Brentwood temperature yesterday

Maximum temperature yesterday: 74 °F (at 3:00 PM)
Minimum temperature yesterday: 58 °F (at 11:00 PM)
Average temperature yesterday: 65 °F

Past Weeks' High & Low Weather Summary

 TemperatureHumidityPressure
High74 °F (Aug 28, 3:00 PM)99% (Aug 26, 7:00 AM)30.16 "Hg (Aug 26, 7:00 AM)
Low46 °F (Aug 24, 6:00 AM)39% (Aug 20, 5:00 PM)29.54 "Hg (Aug 25, 10:00 PM)
Average60 °F74%29.90 "Hg
* Reported Aug 14 7:00 PM — Aug 29 7:00 PM, Brentwood, Weather by CustomWeather, © 2014

Note: Actual official high and low records may vary slightly from our data, if they occured in-between our weather recording intervals... More about our weather records

Advertising

Brentwood weather history for previous 24 hours

 ConditionsComfort  
Time TempWeatherWind HumidityBarometerVisibility
7:00 PM
Aug 29
65 °FMild.15 mph74%29.91 "HgN/A
6:00 PM66 °FMild.12 mph69%29.91 "HgN/A
5:00 PM67 °FMild.17 mph66%29.91 "HgN/A
4:00 PM68 °FMild.16 mph61%29.91 "HgN/A
3:00 PM68 °FMild.16 mph61%29.91 "HgN/A
1:00 PM70 °FMild.17 mph57%29.91 "HgN/A
12:00 PM67 °FMild.13 mph63%29.91 "HgN/A
11:00 AM64 °FMild.13 mph78%29.91 "HgN/A
10:00 AM65 °FMild.15 mph70%29.92 "HgN/A
9:00 AM63 °FMild.12 mph81%29.91 "HgN/A
8:00 AM60 °FCool.10 mph87%29.91 "HgN/A
7:00 AM57 °FCool.9 mph91%29.90 "HgN/A
6:00 AM56 °FCool.8 mph94%29.90 "HgN/A
5:00 AM56 °FCool.8 mph94%29.90 "HgN/A
4:00 AM57 °FCool.9 mph93%29.90 "HgN/A
3:00 AM57 °FCool.10 mph93%29.90 "HgN/A
2:00 AM57 °FCool.8 mph94%29.91 "HgN/A
1:00 AM57 °FCool.8 mph93%29.91 "HgN/A
12:00 AM58 °FCool.9 mph90%29.91 "HgN/A
11:00 PM
Aug 28
58 °FCool.10 mph90%29.90 "HgN/A
10:00 PM59 °FCool.8 mph86%29.89 "HgN/A
9:00 PM61 °FCool.8 mph82%29.88 "HgN/A
Weather by CustomWeather, © 2014

See weather overviewHow to use our weather pages